Wind_Speed
12 13 13 13 14 14 13 13 11 10 10 10 9 8 10 9 5 3 2 2 4 7 5 2 4 3 3 3 3 2 3 2 3 4 2 2 6 3 2 1 4 5 1 3 18
12 12 13 14 14 14 14 15 14 12 11 9 8 7 6 6 2 5 3 4 3 2 5 4 2 2 3 2 2 3 3 6 4 2 1 5 1 4 4 6 3 4 5 16 19
12 13 14 14 14 14 15 15 15 14 12 10 7 6 5 2 1 2 4 4 3 4 6 5 4 2 3 1 1 2 4 3 2 3 0 1 3 2 3 4 5 6 6 11 15
12 13 15 15 15 15 14 13 13 13 11 8 6 5 3 1 3 2 4 4 3 3 4 4 4 2 3 1 0 1 3 3 3 0 4 3 2 4 4 6 7 6 5 5 7
12 13 14 15 15 15 15 13 12 10 10 8 7 3 1 2 2 2 3 3 3 4 6 3 3 3 3 2 1 2 2 2 5 7 6 3 5 4 5 8 9 7 5 6 5
12 15 15 16 16 16 14 13 10 9 10 6 4 0 2 3 2 3 4 4 6 5 4 5 2 2 3 1 0 2 3 6 6 5 3 4 3 3 2 8 9 7 7 7 7
11 14 15 17 17 18 16 12 10 7 8 2 1 2 1 2 2 4 5 6 6 4 3 4 3 3 2 1 4 3 5 6 2 3 2 2 2 4 9 10 9 11 8 8 10
12 13 15 17 18 16 13 12 6 7 4 5 3 2 1 2 3 4 3 5 5 7 7 5 4 4 3 1 5 3 4 3 4 5 3 1 5 7 12 6 9 10 11 9 10
12 13 15 17 18 15 11 4 2 4 3 2 2 2 2 2 2 3 3 4 4 6 7 6 5 3 4 4 4 5 1 1 6 4 5 5 5 6 10 9 9 9 10 10 12
12 13 16 16 17 15 8 0 3 3 0 2 2 2 3 2 2 3 4 5 5 4 4 7 5 3 3 3 3 1 1 2 4 3 5 4 3 4 7 8 7 8 10 11 12
12 13 15 17 13 11 2 1 3 3 3 1 1 2 1 1 2 3 3 3 3 6 3 3 4 3 5 4 3 4 2 3 4 4 2 3 3 4 5 6 8 8 9 10 11
12 13 15 16 12 6 1 4 2 1 2 1 2 2 0 1 2 2 2 3 3 2 2 4 4 3 3 3 4 2 2 4 5 4 1 2 4 0 3 3 4 6 9 10 12
9 13 16 12 4 2 6 4 2 2 3 2 0 1 1 2 1 1 1 2 2 3 3 4 3 3 4 3 4 4 4 4 6 4 2 3 4 4 1 3 5 6 6 9 11
8 11 14 10 1 2 2 3 3 2 4 2 2 1 1 2 3 2 2 2 2 1 4 4 3 3 4 4 6 3 6 4 3 2 3 2 4 4 4 2 3 5 6 8 10
8 10 12 7 2 1 1 3 3 0 4 2 1 2 2 3 3 2 2 2 3 2 3 3 1 3 4 5 6 5 4 3 1 2 3 1 1 4 5 5 3 2 5 6 7
5 7 8 3 1 1 3 3 1 6 5 0 2 2 2 4 1 0 1 5 2 2 2 6 2 3 5 2 6 7 5 6 4 2 2 5 6 4 6 5 4 2 3 5 6
7 6 5 1 1 2 4 1 5 4 3 3 2 1 2 0 1 1 1 1 4 2 2 4 4 3 3 3 1 3 5 2 4 2 6 2 3 6 4 6 8 7 3 4 4
5 5 4 3 2 5 2 5 4 2 5 0 1 2 3 0 1 1 2 2 3 3 2 3 6 5 3 4 6 6 7 5 7 3 3 2 6 4 1 7 8 6 4 3 4
4 3 4 2 6 6 4 3 8 7 6 8 3 4 3 2 2 1 4 4 5 7 7 4 5 2 2 1 3 3 4 2 6 2 3 3 4 1 4 5 5 5 4 3 3
3 5 4 3 8 3 4 5 4 3 5 3 7 3 6 4 4 4 4 3 3 3 2 1 4 1 1 0 2 3 4 3 2 3 5 3 4 4 9 8 6 5 4 2 2
6 2 2 7 6 4 3 6 4 3 3 5 5 3 4 6 5 4 3 0 2 3 2 3 3 3 0 4 4 1 2 2 2 3 5 1 4 3 4 11 12 8 6 4 3
6 1 4 10 3 2 3 5 4 4 2 1 3 3 6 4 3 3 5 3 2 4 5 3 3 3 7 2 2 2 2 3 3 5 2 2 7 5 5 9 11 7 5 4 4
4 2 1 3 3 2 3 1 4 4 4 5 5 2 3 5 0 3 2 1 0 3 5 4 1 3 8 4 3 3 1 3 3 1 5 4 5 3 6 7 4 5 5 5 5
3 2 3 1 1 5 5 3 4 2 3 3 4 4 4 2 3 3 3 1 1 2 4 2 2 6 6 3 2 2 3 3 4 3 3 6 6 1 3 5 7 7 6 7 6
2 4 2 4 4 4 4 6 5 5 2 3 1 4 6 3 2 3 2 1 1 2 2 4 4 4 4 6 4 6 6 7 7 5 5 5 10 7 10 9 7 7 6 7 7
4 4 2 1 1 8 5 5 8 3 7 4 4 6 5 6 7 8 6 4 5 2 3 1 2 2 4 5 5 7 9 11 12 7 12 15 22 8 9 6 7 8 8 9 8
5 3 4 2 2 5 5 7 9 9 3 2 7 5 5 7 6 4 3 3 4 7 6 5 5 3 5 4 7 10 10 18 7 6 7 7 13 3 5 8 8 9 6 9 10
Wind_Direction
6 2 359 354 352 346 341 337 333 333 329 327 323 327 330 332 350 102 60 10 318 310 341 57 89 72 73 80 68 121 74 238 252 162 239 0 17 314 278 288 320 313 142 283 353
3 358 356 352 347 341 338 334 331 327 320 317 314 317 326 339 74 64 33 358 353 28 98 89 80 86 34 66 43 92 135 222 223 213 340 321 8 322 347 339 315 308 290 330 346
358 354 352 349 344 340 337 333 328 327 323 317 312 312 329 359 76 56 26 16 38 87 86 95 94 55 81 45 93 149 196 215 273 260 119 293 305 276 306 301 240 258 290 329 334
355 352 347 345 342 338 337 336 332 330 325 322 324 316 331 104 119 36 10 17 35 49 88 86 65 67 97 161 252 131 248 221 259 31 355 306 268 294 235 252 281 277 282 289 314
348 348 345 342 341 339 336 333 332 335 326 318 320 331 3 72 102 33 13 27 44 75 60 66 84 114 145 185 251 188 279 294 290 296 264 261 245 243 273 292 307 312 292 298 332
347 346 346 342 340 336 334 329 328 337 331 308 313 93 8 94 84 31 51 58 59 67 68 49 112 121 98 10 187 308 300 290 293 287 266 246 244 157 257 347 338 27 22 14 7
345 344 342 342 341 337 334 333 331 334 343 78 151 31 26 122 58 48 52 57 58 80 101 72 70 87 107 24 328 336 337 326 336 319 357 259 302 121 359 341 339 355 26 14 18
343 346 345 342 339 336 337 333 345 353 43 104 116 16 133 76 76 68 76 77 71 76 88 81 81 100 74 137 7 23 53 360 307 337 355 63 271 22 355 349 22 17 2 14 11
345 343 344 342 336 335 335 328 101 69 67 57 27 22 50 71 75 58 59 92 86 76 71 75 72 79 29 83 1 14 284 312 318 38 352 48 276 354 8 38 23 10 9 10 3
345 344 341 340 339 338 341 158 128 122 131 332 19 57 28 50 18 51 72 78 81 72 34 41 48 70 38 93 236 235 247 265 268 311 346 320 272 340 13 36 27 5 9 9 10
339 340 340 337 344 343 17 95 37 358 65 96 229 90 45 20 58 54 85 84 39 48 73 7 60 208 230 194 96 120 168 261 262 276 283 303 300 345 12 39 26 13 12 6 8
334 334 339 338 339 358 54 78 108 172 34 98 314 331 299 63 76 6 132 96 76 102 108 28 239 226 190 142 160 160 207 259 273 245 199 340 283 158 27 45 37 20 15 8 4
334 335 338 340 356 29 70 95 120 144 96 21 121 63 322 99 130 274 96 105 107 120 175 180 183 91 145 156 161 195 191 220 229 326 264 337 277 220 261 71 30 33 19 19 12
329 334 341 346 80 52 75 119 146 130 75 312 354 359 14 101 53 5 46 123 37 154 174 229 278 220 184 203 166 203 204 216 222 146 244 53 275 248 186 128 38 17 20 19 9
319 327 342 11 84 101 134 138 147 166 14 309 38 320 35 106 150 3 21 56 179 185 125 249 201 200 209 213 175 215 132 140 154 129 350 214 81 263 134 207 178 35 14 14 5
306 324 333 321 38 76 138 150 126 47 258 43 328 359 95 7 24 86 74 48 119 165 216 239 290 236 221 162 175 148 85 50 48 69 323 217 176 237 190 188 159 155 35 13 2
278 300 318 357 158 136 144 57 44 128 328 264 162 97 104 96 126 131 131 157 177 94 294 310 224 267 185 140 135 133 98 328 344 7 226 323 201 260 195 159 152 153 104 14 7
261 288 184 161 146 156 159 56 106 223 215 191 113 81 169 230 227 118 111 262 236 104 116 177 315 187 182 208 192 191 163 165 209 212 260 125 236 263 111 111 121 123 124 70 17
250 192 172 142 154 153 77 77 203 200 158 154 79 98 299 286 196 154 212 215 206 179 178 160 268 294 245 309 151 204 193 168 104 43 30 225 288 167 136 132 134 141 121 65 21
189 167 158 148 149 132 81 239 207 185 135 144 177 147 184 234 169 185 200 200 190 182 109 169 299 236 302 87 319 205 165 97 1 164 232 276 275 235 198 189 182 181 174 166 343
160 98 160 155 140 58 173 223 216 217 152 159 190 139 209 188 197 207 222 183 137 141 131 148 144 275 85 204 201 9 280 11 152 157 184 235 257 21 251 192 183 198 199 215 269
145 120 159 156 73 359 174 190 181 153 126 131 125 123 177 155 160 230 223 227 165 159 165 192 164 243 234 299 283 282 263 175 171 245 206 161 261 331 292 173 166 185 196 230 250
135 128 79 167 163 225 293 230 194 135 183 172 176 150 132 162 128 213 223 54 128 164 166 200 279 353 331 359 5 226 159 110 114 109 203 195 257 24 56 89 100 177 226 247 265
119 125 335 37 321 145 135 222 194 197 146 149 134 100 96 74 25 197 232 152 34 179 142 121 127 176 207 202 132 233 195 149 133 128 200 228 286 132 138 184 215 230 242 247 259
68 226 197 196 245 160 159 149 147 164 199 171 89 191 154 127 14 230 278 290 313 338 91 133 210 169 252 248 249 224 214 204 187 199 190 244 232 179 215 220 235 244 275 283 280
148 150 10 119 135 139 186 220 164 193 150 209 168 174 164 162 188 202 156 201 207 356 137 110 234 137 292 291 283 271 233 222 222 220 248 252 268 226 252 223 245 258 260 272 279
149 123 110 142 83 107 209 191 192 146 254 167 159 121 180 222 180 184 173 162 180 166 173 158 146 117 262 338 327 300 219 217 194 211 190 201 247 147 224 235 235 244 235 246 257
Height
842 841 839 839 836 836 834 833 830 828 827 826 825 823 823 821 820 819 820 822 822 820 819 820 820 822 821 823 825 828 840 844 838 837 829 826 826 821 819 820 817 814 812 810 805
841 841 839 838 836 835 834 833 831 829 827 824 824 821 821 820 820 821 823 821 820 819 818 820 823 823 828 826 828 833 844 839 833 830 829 829 826 825 823 822 819 813 809 807 804
841 841 839 837 836 835 832 831 830 828 826 824 822 821 820 821 822 822 822 822 821 821 819 819 822 826 827 829 830 834 837 834 829 828 829 828 826 823 822 822 815 815 811 808 806
841 840 840 837 836 834 831 829 828 826 825 824 822 821 820 820 822 823 823 823 823 822 821 821 822 828 831 833 831 833 831 831 828 827 830 827 824 824 821 817 811 811 812 810 807
841 840 838 837 835 833 831 828 827 824 824 824 822 821 821 821 823 823 823 822 822 822 823 824 826 829 832 832 833 832 830 830 829 830 829 825 824 824 821 816 813 808 809 809 808
842 840 838 836 834 832 828 828 825 824 823 823 823 822 823 822 824 824 822 823 823 824 824 825 828 830 833 835 834 835 833 833 828 825 825 824 822 821 819 819 814 808 810 811 811
840 839 837 835 833 831 829 826 825 823 822 821 822 824 823 826 824 824 824 825 825 825 825 826 829 829 832 836 837 836 836 834 826 823 821 823 819 823 829 823 819 818 816 816 813
838 836 835 834 832 829 827 827 825 826 823 822 822 823 825 824 824 825 825 825 827 826 826 825 828 831 832 835 841 839 843 838 827 827 823 822 826 828 831 826 826 825 823 819 818
837 835 833 832 830 827 825 825 823 824 827 826 824 826 826 825 826 825 826 826 828 827 827 828 829 839 838 842 847 851 843 842 836 833 832 828 827 834 834 831 833 830 826 823 820
836 834 833 829 828 826 825 825 823 823 826 827 826 828 828 828 828 828 829 828 829 828 830 833 841 846 852 847 844 842 845 845 845 834 837 836 834 838 837 836 838 835 830 826 823
836 834 831 830 824 824 825 826 828 828 824 828 829 828 828 827 827 829 828 830 831 833 838 841 845 848 845 845 843 844 844 846 845 837 837 835 838 841 841 840 839 837 834 832 827
835 834 830 828 825 824 824 826 829 831 828 827 829 829 828 827 829 830 830 831 833 839 840 845 845 839 840 844 843 844 845 847 841 838 835 836 835 840 842 842 842 839 838 836 830
832 833 830 826 824 826 825 827 829 829 830 830 829 829 829 828 830 831 831 832 835 839 841 844 836 840 839 842 842 843 845 843 838 836 836 837 836 840 842 842 842 840 840 837 834
831 830 828 826 827 826 827 826 828 828 846 835 831 830 830 828 833 831 831 834 837 837 843 845 838 836 837 838 838 837 836 837 836 840 851 839 851 835 839 843 846 846 843 840 837
830 830 828 825 826 827 829 828 828 829 871 834 832 830 829 831 832 831 830 830 835 837 839 834 833 836 837 832 835 833 834 836 835 845 847 846 860 830 842 842 843 846 845 843 841
829 828 826 827 827 828 827 828 829 856 862 841 836 834 832 834 833 832 832 830 833 836 838 839 835 833 830 828 831 836 839 849 856 856 890 848 841 819 836 832 843 845 846 845 843
826 826 825 826 827 827 828 830 858 872 845 849 838 835 834 839 835 834 835 837 839 853 842 838 834 829 826 827 831 832 842 894 889 912 866 852 848 817 824 831 835 844 845 846 845
823 824 823 825 824 827 828 841 869 873 865 843 840 840 838 845 838 837 840 845 845 844 858 856 846 831 826 826 828 834 837 873 874 884 857 844 846 813 831 835 838 841 843 843 844
821 822 823 823 823 826 834 874 844 842 835 838 845 857 862 848 844 841 844 847 842 846 847 860 842 829 829 827 826 836 843 833 883 905 884 837 824 833 837 841 842 841 841 841 842
820 822 823 823 824 826 843 833 836 830 831 832 833 856 877 875 849 846 847 841 839 843 843 843 855 832 830 831 831 831 832 849 868 874 874 849 841 812 835 840 843 843 841 840 841
819 824 824 824 825 830 844 840 832 829 827 830 841 871 851 864 852 858 843 841 841 845 844 847 850 839 834 834 835 847 850 848 840 847 868 870 828 828 827 830 837 840 840 841 841
817 830 823 824 837 865 852 835 825 828 830 830 834 840 848 857 869 854 846 842 843 844 849 846 855 868 845 844 845 842 838 840 854 849 857 855 826 835 830 827 832 837 838 840 840
817 824 823 823 837 845 844 829 826 829 830 832 834 833 845 861 860 862 844 845 844 845 854 852 876 899 858 853 847 842 842 848 873 864 850 836 821 832 833 833 834 838 838 836 836
814 827 829 825 826 825 840 836 830 826 828 828 832 837 847 863 865 870 850 846 846 845 842 847 873 876 861 850 860 847 845 849 874 893 876 845 844 836 833 833 833 832 833 834 835
809 810 812 826 827 824 822 825 826 836 829 830 833 833 843 872 876 874 867 852 848 848 855 857 874 887 882 868 862 853 850 852 869 881 866 849 850 854 836 836 836 832 829 830 829
806 810 817 833 817 817 822 833 825 834 833 831 841 831 846 854 845 861 865 868 849 858 857 862 870 872 880 862 859 856 849 850 846 855 849 835 828 827 823 828 830 830 831 828 829
797 800 802 819 824 826 822 819 817 821 827 822 829 839 840 838 843 840 841 843 847 851 856 860 868 878 885 872 868 862 840 831 842 842 841 853 821 823 832 827 831 827 829 829 825